📊 Raw Sensor Data
Showing records 32951 to 32975 of 84,743 total
| ID | Distance (ft) | Battery V | Battery A | Int Temp (°F) | Int Humid (%) | Ext Temp (°F) | Solar V | RSSI | SNR | Time Stamp |
|---|---|---|---|---|---|---|---|---|---|---|
| 51805 | 14.9 | 4.14 | 5 | 100 | 46 | 87 | 5.10 | -74 | 8 | 09/12/2025 04:30 PM |
| 51804 | 14.9 | 4.01 | 0 | 100 | 45 | 89 | 5.10 | -75 | 7 | 09/12/2025 04:15 PM |
| 51803 | 14.9 | 4.01 | 5 | 100 | 45 | 89 | 5.10 | -75 | 7 | 09/12/2025 04:00 PM |
| 51802 | 14.9 | 4.03 | 5 | 101 | 44 | 87 | 5.10 | -75 | 8 | 09/12/2025 03:45 PM |
| 51801 | 14.9 | 4.01 | 5 | 100 | 44 | 87 | 5.10 | -73 | 8 | 09/12/2025 03:30 PM |
| 51800 | 14.9 | 4.01 | 0 | 102 | 42 | 91 | 5.10 | -75 | 8 | 09/12/2025 03:15 PM |
| 51799 | 14.9 | 4.01 | 0 | 101 | 42 | 88 | 5.10 | -74 | 8 | 09/12/2025 03:00 PM |
| 51798 | 14.9 | 4.01 | 5 | 100 | 42 | 88 | 5.10 | -74 | 7 | 09/12/2025 02:45 PM |
| 51797 | 14.8 | 4.01 | 5 | 100 | 41 | 88 | 5.10 | -76 | 7 | 09/12/2025 02:30 PM |
| 51796 | 14.8 | 4.01 | 0 | 99 | 41 | 87 | 5.10 | -74 | 8 | 09/12/2025 02:15 PM |
| 51795 | 14.8 | 4.01 | 0 | 97 | 41 | 84 | 5.10 | -73 | 8 | 09/12/2025 02:00 PM |
| 51794 | 14.9 | 4.14 | 5 | 97 | 41 | 85 | 5.20 | -73 | 8 | 09/12/2025 01:45 PM |
| 51793 | 14.8 | 4.01 | 5 | 95 | 41 | 84 | 5.10 | -73 | 8 | 09/12/2025 01:30 PM |
| 51792 | 14.8 | 4.01 | 0 | 93 | 42 | 85 | 5.10 | -72 | 8 | 09/12/2025 01:15 PM |
| 51791 | 14.8 | 4.01 | 5 | 92 | 42 | 85 | 5.10 | -73 | 8 | 09/12/2025 01:00 PM |
| 51790 | 13.9 | 4.07 | 0 | 92 | 41 | 84 | 5.10 | -72 | 7 | 09/12/2025 12:45 PM |
| 51789 | 14.8 | 4.01 | 5 | 91 | 41 | 83 | 5.10 | -73 | 8 | 09/12/2025 12:30 PM |
| 51788 | 14.8 | 4.01 | 0 | 89 | 42 | 82 | 5.10 | -71 | 7 | 09/12/2025 12:15 PM |
| 51787 | 14.9 | 4.01 | 0 | 88 | 41 | 79 | 5.10 | -72 | 7 | 09/12/2025 12:00 PM |
| 51786 | 14.0 | 4.02 | 5 | 87 | 41 | 83 | 5.10 | -74 | 8 | 09/12/2025 11:45 AM |
| 51785 | 14.9 | 4.01 | 5 | 86 | 41 | 79 | 5.10 | -71 | 7 | 09/12/2025 11:30 AM |
| 51784 | 15.0 | 4.01 | 5 | 85 | 41 | 80 | 5.10 | -71 | 7 | 09/12/2025 11:15 AM |
| 51783 | 14.9 | 4.04 | 5 | 83 | 41 | 83 | 5.10 | -72 | 8 | 09/12/2025 11:00 AM |
| 51782 | 14.9 | 4.01 | 0 | 81 | 41 | 81 | 5.10 | -72 | 8 | 09/12/2025 10:45 AM |
| 51781 | 14.9 | 4.01 | 0 | 79 | 41 | 80 | 5.10 | -71 | 8 | 09/12/2025 10:30 AM |